Tracking 18984 objects as of 24-Feb-2018
HD Live streaming from Space Station
objects crossing your sky now

FORMOSAT 3C

Track FORMOSAT 3C now!
10-day predictions
FORMOSAT 3C is classified as:


NORAD ID: 29049
Int'l Code: 2006-011C
Perigee: 779.8 km
Apogee: 827.2 km
Inclination: 72.0 °
Period: 100.8 minutes
Semi major axis: 7174 km
RCS: 0.6004 m2 (medium)
Launch date: April 15, 2006
Source: Taiwan (Republic of China) (ROC)
Launch site: AIR FORCE WESTERN TEST RANGE (AFWTR)
aabbcc
Your satellite tracking list
Your tracking list is empty




NASA's NSSDC Master Catalog

Two Line Element Set (TLE):
1 29049U 06011C   18054.60292289 +.00000035 +00000-0 +30051-4 0  9999
2 29049 072.0198 112.9242 0033048 068.2259 292.2389 14.28624819618931
Source of the keplerian elements: AFSPC